Paganella, Italy

4:23 AM CEST on April 29, 2017 (GMT +0200)
Paganella

Weather History for LIVP - September, 2012

Change the Weather History Date:

Sunday, September 30, 2012

  Actual Average Record
Temperature  
Mean Temperature 47 °F -  
Max Temperature 50 °F 43 °F 57 °F (1996)
Min Temperature 44 °F 35 °F 28 °F (2015)
Degree Days  
Heating Degree Days 18    
Moisture  
Dew Point 45 °F    
Average Humidity 95    
Maximum Humidity 100    
Minimum Humidity 81    
Precipitation  
Precipitation 0.20 in 0.10 in - ()
Sea Level Pressure  
Sea Level Pressure 30.20 in    
Wind  
Wind Speed 8 mph ()    
Max Wind Speed 14 mph    
Max Gust Speed -    
Visibility 0.9 miles    
Events Fog , Rain    
Averages and records for this station are not official NWS values.
T = Trace of Precipitation, MM = Missing Value Source: Averaged Metar Reports

Daily Weather History Graph

Daily Weather History Graph

Search for Another Location

Airport or City:

Trip Planner

Search our weather history database for the weather conditions in past years. The results will help you decide how hot, cold, wet, or windy it might be!

Date:

Astronomy

Sep. 30, 2012 Rise Set
Actual Time 7:13 AM CEST 6:57 PM CEST
Civil Twilight 6:43 AM CEST 7:27 PM CEST
Nautical Twilight 6:08 AM CEST 8:01 PM CEST
Astronomical Twilight 5:33 AM CEST 8:37 PM CEST
Moon 6:47 PM CEST (9/30) 7:31 AM CEST (9/30)
Length of Visible Light 12h 43m
Length of Day
11h 44m
Full, 100% of the Moon is Illuminated
Sep 30
Full
Oct 8
Last Quarter
Oct 15
New
Oct 22
First Quarter
Oct 29
Full

Hourly Weather History & Observations

Time (CEST) Temp. Windchill Dew Point Humidity Pressure Visibility Wind Dir Wind Speed Gust Speed Precip Events Conditions
12:55 AM 44.6 °F 39.7 °F 44.6 °F 100% 30.18 in 0.0 mi South 9.2 mph - N/A Fog , Rain Light Rain
1:55 AM 44.6 °F 40.2 °F 44.6 °F 100% 30.18 in 0.0 mi South 8.1 mph - N/A Fog Fog
2:00 AM 45 °F - 45 °F 98%  in 0 mi South 8.1 mph - - Fog Heavy Fog
2:55 AM 46.4 °F 42.4 °F 44.6 °F 93% 30.18 in 0.0 mi SW 8.1 mph - N/A Fog Fog
3:55 AM 46.4 °F 40.7 °F 44.6 °F 93% 30.18 in 0.2 mi SSW 12.7 mph - N/A Fog Fog
4:55 AM 46.4 °F 41.1 °F 44.6 °F 93% 30.18 in 0.4 mi SSW 11.5 mph - N/A Fog Fog
5:00 AM 46 °F - 45 °F 95%  in 0 mi SSW 11.5 mph - - Fog Patches of Fog
5:55 AM 46.4 °F 41.9 °F 44.6 °F 93% 30.15 in 6.2 mi WSW 9.2 mph - N/A   Mostly Cloudy
6:55 AM 46.4 °F 41.9 °F 44.6 °F 93% 30.15 in 6.2 mi SW 9.2 mph - N/A   Scattered Clouds
7:55 AM 46.4 °F 42.9 °F 44.6 °F 93% 30.18 in 0.0 mi South 6.9 mph - N/A Fog Fog
8:00 AM 46 °F - 45 °F 96%  in 0 mi South 6.9 mph - - Fog Heavy Fog
8:55 AM 46.4 °F 42.9 °F 46.4 °F 100% 30.18 in 0.0 mi SSE 6.9 mph - N/A Fog Fog
9:55 AM 46.4 °F 42.9 °F 46.4 °F 100% 30.21 in 0.0 mi SSE 6.9 mph - N/A Fog Fog
10:55 AM 46.4 °F 42.9 °F 46.4 °F 100% 30.21 in 0.0 mi SSE 6.9 mph - N/A Fog , Rain Light Rain
11:00 AM 46 °F - 46 °F 100%  in 0 mi SSE 6.9 mph - - Rain Light Rain
11:55 AM 48.2 °F - 48.2 °F 100% 30.21 in 0.0 mi SSE 8.1 mph - N/A Fog , Rain Light Rain
12:55 PM 48.2 °F - 48.2 °F 100% 30.24 in 0.0 mi South 6.9 mph - N/A Fog Fog
1:55 PM 50.0 °F - 48.2 °F 94% 30.24 in 0.0 mi SSE 5.8 mph - N/A Fog Fog
2:00 PM 50 °F - 49 °F 95%  in 0 mi SSE 5.8 mph - - Fog Heavy Fog
2:55 PM 50.0 °F - 48.2 °F 94% 30.21 in 0.2 mi South 9.2 mph - N/A Fog Fog
3:55 PM 48.2 °F - 46.4 °F 93% 30.21 in 0.0 mi SSE 11.5 mph - N/A Fog , Rain Light Rain
4:55 PM 46.4 °F 40.4 °F 42.8 °F 87% 30.21 in 0.5 mi SSW 13.8 mph - N/A Fog , Rain Light Rain
5:00 PM 46 °F - 44 °F 88%  in 0 mi SSW 13.8 mph - - Rain Light Rain
5:55 PM 46.4 °F 42.4 °F 41.0 °F 81% 30.21 in 6.2 mi South 8.1 mph - N/A   Partly Cloudy
6:55 PM 44.6 °F 41.4 °F 39.2 °F 81% 30.21 in 6.2 mi ESE 5.8 mph - N/A   Partly Cloudy
7:55 PM 44.6 °F 39.7 °F 42.8 °F 93% 30.21 in 0.0 mi SE 9.2 mph - N/A Fog Fog
8:00 PM 45 °F - 44 °F 93%  in 0 mi SE 9.2 mph - - Fog Heavy Fog
8:55 PM 46.4 °F 41.9 °F 46.4 °F 100% 30.21 in 0.0 mi SE 9.2 mph - N/A Fog Fog
9:55 PM 44.6 °F 39.2 °F 44.6 °F 100% 30.21 in 0.4 mi ESE 10.4 mph - N/A Fog Fog
10:55 PM 44.6 °F 41.4 °F 44.6 °F 100% 30.21 in 0.4 mi East 5.8 mph - N/A Fog Fog
11:00 PM 45 °F - 44 °F 97%  in 0 mi East 5.8 mph - - Fog Heavy Fog
11:55 PM 44.6 °F 42.2 °F 42.8 °F 93% 30.18 in 0.4 mi North 4.6 mph - N/A Fog Fog